GW1686 Weather Reports


time (UTC)temp
C
wind
direction
speed
KPH
gust
KPH
rain 1hr
cm
rain 24hr
cm
rain mn
cm
humidity
%
barometer
mb
20260902203052 30 244 0.0 9.7 0.23 7.19 0.23 82 1008.9
20260902201553 32 229 1.6 14.5 0.00 6.96 0.00 76 1009.1
20260902200048 31 0 1.6 16.1 0.00 6.96 0.00 76 1009.3
20260902194548 31 9 3.2 12.9 0.00 6.96 0.00 74 1009.7
20260902193054 31 256 1.6 9.7 0.00 6.96 0.00 76 1009.8
20260902191550 32 313 3.2 12.9 0.00 6.96 0.00 75 1010.1
20260902190049 32 267 1.6 14.5 0.00 6.96 0.00 76 1010.2
20260902184550 32 0 0.0 8.0 0.00 6.96 0.00 75 1010.5
20260902183057 32 36 0.0 8.0 0.00 6.96 0.00 67 1010.8
20260902181555 32 0 0.0 0.0 0.00 6.96 0.00 69 1011.0
20260902180051 32 0 0.0 6.4 0.00 6.96 0.00 69 1011.3
20260902174552 32 360 0.0 8.0 0.00 6.96 0.00 69 1011.3
20260902173117 32 0 0.0 6.4 0.00 6.96 0.00 68 1011.4
20260902171600 31 0 1.6 8.0 0.00 6.96 0.00 69 1011.6
20260902170058 31 0 1.6 8.0 0.00 6.96 0.00 72 1011.8
20260902164556 31 355 1.6 9.7 0.00 6.96 0.00 72 1012.0
20260902163048 31 0 1.6 12.9 0.00 6.96 0.00 75 1012.1
20260902161556 31 0 1.6 8.0 0.00 6.96 0.00 76 1012.2
20260902160055 30 26 0.0 4.8 0.00 6.96 0.00 79 1012.4
20260902154550 29 0 0.0 3.2 0.00 6.96 0.00 85 1012.5
20260902153047 28 18 0.0 6.4 0.00 6.96 0.00 83 1012.8
20260902151546 28 27 0.0 8.0 0.00 6.96 0.00 84 1012.9
20260902150052 28 38 1.6 8.0 0.00 6.96 0.00 87 1012.8
20260902144553 27 0 1.6 6.4 0.00 6.96 0.00 94 1012.6
20260902143050 26 0 0.0 6.4 0.00 6.96 0.00 97 1012.7
20260902141556 26 25 0.0 1.6 0.00 6.96 0.00 97 1012.6
20260902140052 26 0 0.0 8.0 0.00 6.96 0.00 98 1012.6
20260902134550 26 0 0.0 0.0 0.00 6.96 0.00 98 1012.6
20260902133055 26 0 0.0 0.0 0.00 6.96 0.00 98 1012.6
20260902131551 26 0 0.0 0.0 0.00 6.96 0.00 98 1012.7
20260902130051 26 0 0.0 0.0 0.00 6.96 0.00 98 1012.6
20260902124602 25 0 0.0 0.0 0.00 6.96 0.00 98 1012.5
20260902123118 25 0 0.0 0.0 0.00 6.96 0.00 98 1012.3
20260902121555 25 0 0.0 0.0 0.00 6.96 0.00 98 1012.2
20260902120051 25 0 0.0 0.0 0.00 6.96 0.00 98 1012.2
20260902114550 25 0 0.0 0.0 0.00 6.96 0.00 98 1012.4
20260902113048 25 0 0.0 0.0 0.00 6.96 0.00 98 1012.2
20260902111549 25 0 0.0 0.0 0.00 6.96 0.00 98 1012.0
20260902110057 24 0 0.0 0.0 0.00 6.96 0.00 98 1012.0
20260902104550 24 0 0.0 0.0 0.00 6.96 0.00 98 1011.7
20260902103048 25 0 0.0 0.0 0.00 6.96 0.00 98 1011.8
20260902101552 25 0 0.0 0.0 0.00 6.96 0.00 98 1011.7
20260902100052 25 0 0.0 0.0 0.00 6.96 0.00 98 1011.6
20260902094554 25 0 0.0 0.0 0.00 6.96 0.00 98 1011.4
20260902093048 25 0 0.0 0.0 0.00 6.96 0.00 98 1011.2
20260902091604 25 0 0.0 0.0 0.00 6.96 0.00 98 1011.2
20260902090051 25 0 0.0 0.0 0.00 6.96 0.00 98 1011.2
20260902084552 25 0 0.0 0.0 0.00 6.96 0.00 98 1011.2
20260902083053 25 0 0.0 0.0 0.00 6.96 0.00 98 1010.9
20260902081545 25 0 0.0 0.0 0.00 6.96 0.00 98 1011.0
20260902080053 25 0 0.0 0.0 0.00 6.96 0.00 98 1011.0
20260902074549 25 0 0.0 0.0 0.00 6.96 0.00 98 1011.0
20260902073049 25 0 0.0 0.0 0.00 6.96 0.00 98 1011.1
20260902071548 25 0 0.0 0.0 0.00 6.96 0.00 98 1011.0
20260902070057 25 0 0.0 0.0 0.00 6.96 0.00 98 1011.2
20260902064551 25 0 0.0 0.0 0.00 6.96 0.00 98 1011.3
20260902063100 25 0 0.0 0.0 0.00 6.96 0.00 98 1011.4
20260902061606 25 0 0.0 0.0 0.00 6.96 0.00 98 1011.5
20260902060154 25 0 0.0 0.0 0.00 6.96 0.00 98 1011.6
20260902054547 25 0 0.0 0.0 0.00 6.96 0.00 98 1011.7
20260902053049 25 0 0.0 0.0 0.00 6.96 0.00 97 1011.7
20260902051547 25 0 0.0 0.0 0.00 6.96 0.00 98 1011.9
20260902050052 25 0 0.0 0.0 0.00 6.96 0.00 97 1011.9
20260902044553 25 0 0.0 0.0 0.00 6.96 0.00 97 1012.0
20260902043047 25 0 0.0 0.0 0.00 6.96 0.00 97 1012.2
20260902041553 25 0 0.0 0.0 0.00 6.96 0.00 97 1012.1
20260902040053 25 0 0.0 0.0 0.00 6.96 0.00 97 1012.2
20260902034550 25 0 0.0 0.0 0.00 6.99 6.96 97 1012.4
20260902033047 25 0 0.0 0.0 0.00 6.99 6.96 97 1012.6
20260902031552 25 0 0.0 0.0 0.00 6.99 6.96 97 1012.7
20260902030050 25 0 0.0 0.0 0.03 6.99 6.96 97 1012.5
20260902024551 25 0 0.0 0.0 0.03 6.99 6.96 97 1012.4
20260902023049 25 0 0.0 0.0 0.05 6.99 6.96 97 1012.4
20260902021541 25 0 0.0 0.0 0.08 6.99 6.96 97 1012.5
20260902020055 25 0 0.0 0.0 0.05 6.96 6.93 97 1012.4
20260902014547 25 0 0.0 0.0 0.08 6.96 6.93 97 1012.4
20260902013053 25 0 0.0 0.0 0.08 6.93 6.91 97 1012.3
20260902011552 25 0 0.0 0.0 0.10 6.91 6.88 97 1012.1
20260902010048 25 0 0.0 0.0 0.15 6.91 6.88 97 1011.9
20260902004549 25 0 0.0 0.0 0.18 6.88 6.86 97 1011.9
20260902003046 24 0 0.0 0.0 0.15 6.86 6.83 97 1011.9
20260902001550 24 0 0.0 0.0 0.10 6.81 6.78 97 1012.0
20260902000054 23 0 0.0 0.0 0.05 6.76 6.73 97 1012.1
20260901234548 23 0 0.0 0.0 0.13 6.78 6.68 96 1012.0
20260901233049 23 0 0.0 0.0 0.56 6.78 6.68 96 1011.7
20260901231552 23 0 0.0 0.0 2.84 6.78 6.68 96 1011.6
20260901230054 22 0 0.0 3.2 6.12 6.76 6.65 95 1011.7
20260901224548 22 0 0.0 3.2 6.53 8.48 6.53 94 1012.1
20260901221553 24 10 9.7 19.3 3.63 5.59 3.63 90 1012.6
20260901220054 28 9 8.0 24.1 0.38 2.34 0.38 80 1012.4
20260901214555 31 275 3.2 11.3 0.00 1.96 0.00 76 1010.7
20260901213042 31 135 1.6 4.8 0.00 1.96 0.00 71 1010.4
20260901211550 31 136 1.6 6.4 0.00 1.96 0.00 69 1010.2
20260901210105 32 91 0.0 4.8 0.00 1.96 0.00 68 1010.2
20260901204549 32 0 1.6 6.4 0.00 1.96 0.00 67 1010.3